^^
Your Local Weather - Clay, NY Station Historical Data
Daily Summary for October 8, 2017 Units:  English    Metric   Both
« Previous Day
Next Day »
Daily Weekly Monthly Yearly Custom
  High: Low: Average:
Temperature: 76.1 °F 59.1 °F 69.1 °F
Dew Point: 67.1 °F 56.8 °F 61.5 °F
Humidity: 93% 58% 77%
Wind Speed: 7.0mph 0.0mph 2.6mph
Wind Gust: 13.0mph - -
Wind- - SW
Pressure: 29.91 in 29.64 in -
Precipitation: 0.23 in    
Historical Graphs
 
 
Tabular Data for October 8, 2017
Time Temperature Dew Point Pressure Wind Wind Speed Wind Gust Humidity Rainfall Rate (Hourly) solar
00:02 70.4 °F 60.1 °F 29.77 in South 3.0 mph 5.0 mph 70% 0.00 in 0 W/m2
00:08 70.6 °F 60.3 °F 29.76 in South 4.0 mph 5.0 mph 70% 0.00 in 0 W/m2
00:14 70.5 °F 60.6 °F 29.76 in SE 3.0 mph 4.0 mph 71% 0.00 in 0 W/m2
00:20 70.6 °F 60.7 °F 29.76 in SSE 4.0 mph 4.0 mph 71% 0.00 in 0 W/m2
00:26 70.6 °F 60.7 °F 29.75 in South 4.0 mph 4.0 mph 71% 0.00 in 0 W/m2
00:32 70.7 °F 60.8 °F 29.75 in South 3.0 mph 7.0 mph 71% 0.00 in 0 W/m2
00:38 70.7 °F 60.8 °F 29.74 in SSE 2.0 mph 7.0 mph 71% 0.00 in 0 W/m2
00:44 70.6 °F 60.7 °F 29.74 in South 2.0 mph 2.0 mph 71% 0.00 in 0 W/m2
00:50 70.8 °F 60.9 °F 29.74 in SSW 3.0 mph 4.0 mph 71% 0.00 in 0 W/m2
01:02 71.0 °F 61.1 °F 29.74 in South 2.0 mph 8.0 mph 71% 0.00 in 0 W/m2
01:08 71.0 °F 61.1 °F 29.74 in WSW 2.0 mph 8.0 mph 71% 0.00 in 0 W/m2
01:14 71.3 °F 61.4 °F 29.74 in SW 3.0 mph 8.0 mph 71% 0.00 in 0 W/m2
01:20 71.4 °F 61.5 °F 29.74 in SSW 4.0 mph 4.0 mph 71% 0.00 in 0 W/m2
01:26 71.5 °F 61.6 °F 29.73 in SSW 4.0 mph 6.0 mph 71% 0.00 in 0 W/m2
01:32 71.7 °F 61.8 °F 29.73 in SW 4.0 mph 6.0 mph 71% 0.00 in 0 W/m2
01:50 72.0 °F 62.1 °F 29.73 in SW 6.0 mph 7.0 mph 71% 0.00 in 0 W/m2
01:56 72.2 °F 62.3 °F 29.73 in SSE 6.0 mph 7.0 mph 71% 0.00 in 0 W/m2
02:02 72.3 °F 62.4 °F 29.72 in South 7.0 mph 8.0 mph 71% 0.00 in 0 W/m2
02:08 72.3 °F 62.4 °F 29.71 in SSW 6.0 mph 8.0 mph 71% 0.00 in 0 W/m2
02:14 72.3 °F 62.8 °F 29.71 in SSE 6.0 mph 7.0 mph 72% 0.00 in 0 W/m2
02:20 72.4 °F 62.9 °F 29.69 in SW 6.0 mph 8.0 mph 72% 0.00 in 0 W/m2
02:26 72.6 °F 63.1 °F 29.70 in SSW 6.0 mph 8.0 mph 72% 0.00 in 0 W/m2
02:32 72.8 °F 63.2 °F 29.70 in South 6.0 mph 6.0 mph 72% 0.00 in 0 W/m2
02:44 72.9 °F 63.7 °F 29.69 in SSE 5.0 mph 6.0 mph 73% 0.00 in 0 W/m2
02:50 73.0 °F 63.8 °F 29.69 in SSE 5.0 mph 5.0 mph 73% 0.00 in 0 W/m2
02:56 73.0 °F 63.8 °F 29.68 in SSE 5.0 mph 6.0 mph 73% 0.00 in 0 W/m2
03:02 73.2 °F 64.0 °F 29.68 in SW 5.0 mph 5.0 mph 73% 0.00 in 0 W/m2
03:08 73.3 °F 64.1 °F 29.68 in SSW 4.0 mph 6.0 mph 73% 0.00 in 0 W/m2
03:14 73.5 °F 64.3 °F 29.68 in South 4.0 mph 8.0 mph 73% 0.00 in 0 W/m2
03:20 73.8 °F 64.6 °F 29.68 in SSW 4.0 mph 4.0 mph 73% 0.00 in 0 W/m2
03:28 74.2 °F 64.6 °F 29.66 in SSW 5.0 mph 10.0 mph 72% 0.00 in 0 W/m2
03:34 74.3 °F 65.1 °F 29.66 in SSW 6.0 mph 8.0 mph 73% 0.00 in 0 W/m2
03:40 73.6 °F 65.2 °F 29.65 in South 6.0 mph 6.0 mph 75% 0.00 in 0 W/m2
03:46 73.3 °F 65.3 °F 29.66 in South 5.0 mph 7.0 mph 76% 0.00 in 0 W/m2
03:52 73.5 °F 65.5 °F 29.67 in South 5.0 mph 6.0 mph 76% 0.00 in 0 W/m2
03:58 73.2 °F 65.9 °F 29.66 in SSW 5.0 mph 9.0 mph 78% 0.49 in 0 W/m2
04:04 72.5 °F 66.0 °F 29.67 in SSW 6.0 mph 7.0 mph 80% 0.09 in 0 W/m2
04:10 72.1 °F 65.9 °F 29.67 in South 5.0 mph 5.0 mph 81% 0.05 in 0 W/m2
04:16 72.0 °F 65.8 °F 29.67 in South 5.0 mph 8.0 mph 81% 0.00 in 0 W/m2
04:22 71.9 °F 66.1 °F 29.67 in South 6.0 mph 8.0 mph 82% 0.00 in 0 W/m2
04:28 72.0 °F 66.2 °F 29.66 in South 5.0 mph 9.0 mph 82% 0.00 in 0 W/m2
04:34 72.0 °F 66.2 °F 29.67 in SW 6.0 mph 8.0 mph 82% 0.05 in 0 W/m2
04:40 71.7 °F 66.3 °F 29.68 in SW 5.0 mph 5.0 mph 83% 0.05 in 0 W/m2
04:46 71.5 °F 66.4 °F 29.68 in WSW 5.0 mph 7.0 mph 84% 0.17 in 0 W/m2
04:52 71.4 °F 66.7 °F 29.68 in SW 6.0 mph 9.0 mph 85% 0.19 in 0 W/m2
04:58 71.0 °F 66.6 °F 29.69 in West 7.0 mph 9.0 mph 86% 0.49 in 0 W/m2
05:04 70.7 °F 66.6 °F 29.69 in SW 7.0 mph 11.0 mph 87% 0.23 in 0 W/m2
05:10 70.5 °F 66.8 °F 29.68 in South 7.0 mph 7.0 mph 88% 0.24 in 0 W/m2
05:16 70.4 °F 67.0 °F 29.68 in SSW 7.0 mph 7.0 mph 89% 0.07 in 0 W/m2
05:22 70.4 °F 67.0 °F 29.67 in SW 6.0 mph 9.0 mph 89% 0.06 in 0 W/m2
05:28 70.5 °F 67.1 °F 29.67 in SSW 6.0 mph 11.0 mph 89% 0.09 in 0 W/m2
05:34 70.5 °F 66.8 °F 29.66 in SSW 6.0 mph 13.0 mph 88% 0.09 in 0 W/m2
05:40 70.5 °F 66.8 °F 29.66 in SSE 6.0 mph 7.0 mph 88% 0.07 in 0 W/m2
05:46 70.5 °F 66.8 °F 29.66 in SW 6.0 mph 12.0 mph 88% 0.06 in 0 W/m2
05:58 70.6 °F 66.5 °F 29.66 in SSW 6.0 mph 7.0 mph 87% 0.00 in 0 W/m2
06:04 70.4 °F 66.3 °F 29.66 in South 4.0 mph 11.0 mph 87% 0.00 in 0 W/m2
06:16 70.4 °F 66.0 °F 29.66 in SSW 5.0 mph 7.0 mph 86% 0.05 in 0 W/m2
06:22 70.3 °F 65.9 °F 29.65 in SSW 5.0 mph 7.0 mph 86% 0.05 in 0 W/m2
06:28 70.2 °F 65.8 °F 29.64 in SSW 5.0 mph 7.0 mph 86% 0.04 in 0 W/m2
06:34 70.1 °F 65.7 °F 29.66 in SSW 3.0 mph 4.0 mph 86% 0.00 in 0 W/m2
06:40 70.0 °F 65.6 °F 29.65 in SSW 3.0 mph 3.0 mph 86% 0.00 in 0 W/m2
06:46 70.2 °F 65.8 °F 29.65 in South 5.0 mph 7.0 mph 86% 0.00 in 0 W/m2
06:52 70.5 °F 66.1 °F 29.65 in SW 5.0 mph 10.0 mph 86% 0.00 in 0 W/m2
06:58 70.7 °F 66.3 °F 29.66 in SSW 4.0 mph 10.0 mph 86% 0.00 in 0 W/m2
07:04 70.6 °F 66.2 °F 29.66 in South 3.0 mph 4.0 mph 86% 0.00 in 0 W/m2
07:10 70.7 °F 66.3 °F 29.66 in South 3.0 mph 6.0 mph 86% 0.00 in 0 W/m2
07:16 71.0 °F 66.6 °F 29.66 in SW 4.0 mph 6.0 mph 86% 0.00 in 0 W/m2
07:22 71.5 °F 66.8 °F 29.66 in South 6.0 mph 6.0 mph 85% 0.00 in 0 W/m2
07:28 72.2 °F 66.7 °F 29.66 in SW 6.0 mph 9.0 mph 83% 0.00 in 0 W/m2
07:34 72.7 °F 66.9 °F 29.66 in South 6.0 mph 7.0 mph 82% 0.00 in 5 W/m2
07:40 72.9 °F 66.7 °F 29.66 in SSW 7.0 mph 7.0 mph 81% 0.00 in 9 W/m2
07:46 73.0 °F 66.5 °F 29.66 in SW 6.0 mph 8.0 mph 80% 0.00 in 9 W/m2
07:52 73.2 °F 66.7 °F 29.67 in SSW 6.0 mph 7.0 mph 80% 0.00 in 7 W/m2
07:58 73.4 °F 66.5 °F 29.67 in South 6.0 mph 7.0 mph 79% 0.00 in 9 W/m2
08:04 73.4 °F 66.5 °F 29.67 in South 7.0 mph 10.0 mph 79% 0.00 in 12 W/m2
08:10 73.3 °F 66.4 °F 29.67 in SW 6.0 mph 9.0 mph 79% 0.00 in 14 W/m2
08:12 73.3 °F 66.4 °F 29.67 in SW 6.0 mph 9.0 mph 79% 0.00 in 16 W/m2
08:18 73.3 °F 66.4 °F 29.67 in SSW 6.0 mph 9.0 mph 79% 0.00 in 46 W/m2
08:24 73.4 °F 66.1 °F 29.67 in SSW 6.0 mph 7.0 mph 78% 0.00 in 62 W/m2
08:30 73.5 °F 66.2 °F 29.67 in SW 6.0 mph 8.0 mph 78% 0.00 in 58 W/m2
08:42 74.2 °F 66.1 °F 29.69 in South 7.0 mph 8.0 mph 76% 0.00 in 120 W/m2
08:48 74.5 °F 66.4 °F 29.71 in SW 7.0 mph 9.0 mph 76% 0.00 in 107 W/m2
08:54 72.8 °F 64.8 °F 29.73 in WNW 6.0 mph 9.0 mph 76% 0.00 in 7 W/m2
09:00 70.0 °F 63.5 °F 29.74 in West 4.0 mph 4.0 mph 80% 0.00 in 23 W/m2
09:06 68.8 °F 62.7 °F 29.74 in NW 2.0 mph 6.0 mph 81% 0.00 in 63 W/m2
09:12 68.3 °F 62.2 °F 29.75 in SSW 3.0 mph 5.0 mph 81% 0.00 in 60 W/m2
09:18 68.2 °F 62.1 °F 29.75 in ESE 3.0 mph 5.0 mph 81% 0.00 in 67 W/m2
09:24 68.2 °F 62.1 °F 29.75 in SW 2.0 mph 3.0 mph 81% 0.00 in 70 W/m2
09:30 68.3 °F 62.6 °F 29.75 in NW 2.0 mph 4.0 mph 82% 0.00 in 95 W/m2
09:36 68.9 °F 63.2 °F 29.75 in SW 2.0 mph 4.0 mph 82% 0.00 in 144 W/m2
09:42 70.1 °F 63.6 °F 29.76 in NW 2.0 mph 9.0 mph 80% 0.00 in 492 W/m2
09:48 70.5 °F 62.9 °F 29.76 in NNW 2.0 mph 9.0 mph 77% 0.00 in 105 W/m2
09:56 69.8 °F 62.3 °F 29.77 in NW 2.0 mph 4.0 mph 77% 0.00 in 83 W/m2
10:02 69.4 °F 61.5 °F 29.77 in West 2.0 mph 2.0 mph 76% 0.00 in 84 W/m2
10:08 69.2 °F 61.3 °F 29.77 in NNW 2.0 mph 5.0 mph 76% 0.00 in 109 W/m2
10:14 69.1 °F 61.2 °F 29.77 in NNW 2.0 mph 5.0 mph 76% 0.00 in 134 W/m2
10:20 69.1 °F 61.2 °F 29.77 in WNW 2.0 mph 2.0 mph 76% 0.00 in 202 W/m2
10:26 69.5 °F 61.6 °F 29.77 in NW 2.0 mph 2.0 mph 76% 0.00 in 176 W/m2
10:32 70.0 °F 62.1 °F 29.77 in NW 2.0 mph 4.0 mph 76% 0.00 in 295 W/m2
10:38 70.2 °F 61.9 °F 29.78 in West 2.0 mph 4.0 mph 75% 0.00 in 287 W/m2
10:44 71.2 °F 62.1 °F 29.77 in NW 2.0 mph 6.0 mph 73% 0.00 in 578 W/m2
10:50 71.9 °F 61.2 °F 29.78 in West 3.0 mph 3.0 mph 69% 0.00 in 610 W/m2
10:56 72.5 °F 61.7 °F 29.78 in NW 3.0 mph 9.0 mph 69% 0.00 in 580 W/m2
11:02 71.9 °F 61.2 °F 29.78 in WNW 4.0 mph 5.0 mph 69% 0.00 in 747 W/m2
11:08 73.1 °F 61.9 °F 29.78 in West 3.0 mph 5.0 mph 68% 0.00 in 851 W/m2
11:14 73.0 °F 62.6 °F 29.78 in West 1.0 mph 2.0 mph 70% 0.00 in 575 W/m2
11:20 73.7 °F 61.6 °F 29.79 in WSW 1.0 mph 8.0 mph 66% 0.00 in 452 W/m2
11:26 73.6 °F 62.0 °F 29.79 in NNW 2.0 mph 9.0 mph 67% 0.00 in 671 W/m2
11:38 74.3 °F 61.8 °F 29.79 in SW 3.0 mph 3.0 mph 65% 0.00 in 712 W/m2
11:44 74.4 °F 61.4 °F 29.80 in WSW 2.0 mph 3.0 mph 64% 0.00 in 679 W/m2
11:50 74.8 °F 60.9 °F 29.80 in WNW 2.0 mph 2.0 mph 62% 0.00 in 691 W/m2
11:56 74.3 °F 60.4 °F 29.80 in NW 3.0 mph 3.0 mph 62% 0.00 in 728 W/m2
12:02 74.1 °F 59.3 °F 29.80 in WSW 5.0 mph 8.0 mph 60% 0.00 in 756 W/m2
12:08 74.9 °F 59.6 °F 29.80 in SW 5.0 mph 9.0 mph 59% 0.00 in 591 W/m2
12:14 75.0 °F 61.5 °F 29.81 in NW 5.0 mph 8.0 mph 63% 0.00 in 761 W/m2
12:20 75.9 °F 61.5 °F 29.81 in West 4.0 mph 4.0 mph 61% 0.00 in 668 W/m2
12:26 76.1 °F 60.2 °F 29.81 in WSW 3.0 mph 9.0 mph 58% 0.00 in 849 W/m2
12:32 75.9 °F 61.0 °F 29.81 in WSW 4.0 mph 8.0 mph 60% 0.00 in 805 W/m2
12:38 75.3 °F 60.5 °F 29.82 in NNE 3.0 mph 8.0 mph 60% 0.00 in 264 W/m2
12:44 74.8 °F 60.0 °F 29.82 in NW 3.0 mph 5.0 mph 60% 0.00 in 279 W/m2
12:50 74.6 °F 59.8 °F 29.82 in West 3.0 mph 3.0 mph 60% 0.00 in 773 W/m2
13:02 73.8 °F 59.5 °F 29.82 in WSW 2.0 mph 3.0 mph 61% 0.00 in 288 W/m2
13:08 73.3 °F 59.0 °F 29.83 in SW 3.0 mph 3.0 mph 61% 0.00 in 246 W/m2
13:14 73.2 °F 60.7 °F 29.83 in SW 2.0 mph 5.0 mph 65% 0.00 in 297 W/m2
13:20 73.3 °F 59.9 °F 29.82 in WNW 2.0 mph 2.0 mph 63% 0.00 in 265 W/m2
13:26 73.4 °F 60.5 °F 29.83 in WSW 2.0 mph 2.0 mph 64% 0.00 in 214 W/m2
13:32 73.3 °F 59.9 °F 29.83 in SW 1.0 mph 2.0 mph 63% 0.00 in 204 W/m2
13:38 73.1 °F 59.3 °F 29.83 in West 2.0 mph 2.0 mph 62% 0.00 in 183 W/m2
13:44 73.0 °F 60.5 °F 29.83 in WSW 2.0 mph 2.0 mph 65% 0.00 in 327 W/m2
13:50 73.0 °F 60.1 °F 29.83 in WSW 2.0 mph 2.0 mph 64% 0.00 in 241 W/m2
13:56 72.8 °F 59.5 °F 29.83 in NW 3.0 mph 5.0 mph 63% 0.00 in 239 W/m2
14:02 72.8 °F 59.0 °F 29.83 in South 3.0 mph 3.0 mph 62% 0.00 in 218 W/m2
14:08 73.3 °F 59.5 °F 29.83 in WSW 2.0 mph 3.0 mph 62% 0.00 in 350 W/m2
14:20 73.5 °F 59.2 °F 29.83 in WNW 3.0 mph 3.0 mph 61% 0.00 in 125 W/m2
14:26 72.9 °F 60.4 °F 29.83 in NW 2.0 mph 4.0 mph 65% 0.00 in 163 W/m2
14:32 72.4 °F 60.8 °F 29.83 in NNW 1.0 mph 1.0 mph 67% 0.00 in 237 W/m2
14:38 73.6 °F 62.0 °F 29.83 in NNW 1.0 mph 3.0 mph 67% 0.00 in 234 W/m2
14:44 73.3 °F 60.8 °F 29.83 in NNW 1.0 mph 2.0 mph 65% 0.00 in 116 W/m2
14:50 72.4 °F 60.8 °F 29.83 in NNW 1.0 mph 2.0 mph 67% 0.00 in 91 W/m2
14:56 71.7 °F 60.6 °F 29.83 in WNW 1.0 mph 2.0 mph 68% 0.00 in 120 W/m2
15:02 71.2 °F 60.5 °F 29.84 in NW 2.0 mph 2.0 mph 69% 0.00 in 128 W/m2
15:08 70.9 °F 60.2 °F 29.84 in North 1.0 mph 2.0 mph 69% 0.00 in 213 W/m2
15:14 71.0 °F 61.1 °F 29.84 in North 1.0 mph 1.0 mph 71% 0.00 in 171 W/m2
15:20 71.2 °F 60.9 °F 29.84 in Calm     70% 0.00 in 185 W/m2
15:26 72.1 °F 61.8 °F 29.84 in NNW 1.0 mph 2.0 mph 70% 0.00 in 568 W/m2
15:32 74.4 °F 62.3 °F 29.84 in NNW 1.0 mph 1.0 mph 66% 0.00 in 589 W/m2
15:38 73.8 °F 60.9 °F 29.84 in NNW 1.0 mph 2.0 mph 64% 0.00 in 142 W/m2
15:44 72.7 °F 60.3 °F 29.84 in NNW 1.0 mph 1.0 mph 65% 0.00 in 179 W/m2
15:50 71.9 °F 59.9 °F 29.85 in NNW 1.0 mph 1.0 mph 66% 0.00 in 127 W/m2
15:56 71.4 °F 59.9 °F 29.85 in NW 2.0 mph 4.0 mph 67% 0.00 in 100 W/m2
16:02 70.8 °F 59.3 °F 29.85 in NW 2.0 mph 3.0 mph 67% 0.00 in 114 W/m2
16:08 70.5 °F 59.4 °F 29.85 in NNW 1.0 mph 4.0 mph 68% 0.00 in 183 W/m2
16:14 70.4 °F 58.5 °F 29.85 in NNW 1.0 mph 1.0 mph 66% 0.00 in 109 W/m2
16:20 70.2 °F 59.1 °F 29.85 in NNW 1.0 mph 1.0 mph 68% 0.00 in 118 W/m2
16:26 70.0 °F 58.5 °F 29.85 in NNW 1.0 mph 2.0 mph 67% 0.00 in 257 W/m2
16:32 70.5 °F 59.4 °F 29.85 in NNW 1.0 mph 1.0 mph 68% 0.00 in 197 W/m2
16:38 71.3 °F 59.4 °F 29.85 in NNW 1.0 mph 1.0 mph 66% 0.00 in 380 W/m2
16:44 71.4 °F 59.0 °F 29.85 in North 1.0 mph 4.0 mph 65% 0.00 in 239 W/m2
16:50 71.2 °F 58.8 °F 29.85 in North 1.0 mph 2.0 mph 65% 0.00 in 88 W/m2
16:56 70.8 °F 58.9 °F 29.86 in North 1.0 mph 2.0 mph 66% 0.00 in 118 W/m2
17:04 70.4 °F 58.9 °F 29.85 in North 1.0 mph 2.0 mph 67% 0.00 in 127 W/m2
17:10 70.3 °F 59.2 °F 29.85 in North 1.0 mph 1.0 mph 68% 0.00 in 113 W/m2
17:16 70.4 °F 59.7 °F 29.86 in Calm   1.0 mph 69% 0.00 in 58 W/m2
17:22 70.1 °F 59.5 °F 29.86 in Calm     69% 0.00 in 63 W/m2
17:28 69.8 °F 59.2 °F 29.86 in Calm     69% 0.00 in 72 W/m2
17:34 69.7 °F 59.1 °F 29.86 in Calm     69% 0.00 in 58 W/m2
17:40 69.6 °F 60.6 °F 29.86 in Calm     73% 0.00 in 37 W/m2
17:46 69.3 °F 60.7 °F 29.86 in Calm     74% 0.00 in 25 W/m2
17:52 69.0 °F 60.4 °F 29.86 in Calm     74% 0.00 in 28 W/m2
17:58 68.7 °F 60.5 °F 29.86 in Calm     75% 0.00 in 28 W/m2
18:04 68.4 °F 60.9 °F 29.86 in Calm     77% 0.00 in 26 W/m2
18:10 68.0 °F 60.5 °F 29.86 in Calm     77% 0.00 in 18 W/m2
18:16 67.6 °F 59.8 °F 29.86 in Calm     76% 0.00 in 11 W/m2
18:22 67.2 °F 60.1 °F 29.86 in Calm     78% 0.00 in 7 W/m2
18:28 66.7 °F 60.3 °F 29.87 in Calm     80% 0.00 in 5 W/m2
18:34 66.2 °F 60.2 °F 29.86 in Calm     81% 0.00 in 0 W/m2
18:40 65.7 °F 60.1 °F 29.87 in Calm     82% 0.00 in 0 W/m2
18:46 65.1 °F 59.8 °F 29.88 in Calm     83% 0.00 in 0 W/m2
18:52 64.7 °F 59.4 °F 29.88 in Calm     83% 0.00 in 0 W/m2
18:58 64.2 °F 59.3 °F 29.88 in Calm   2.0 mph 84% 0.00 in 0 W/m2
19:04 63.6 °F 59.0 °F 29.88 in Calm   1.0 mph 85% 0.00 in 0 W/m2
19:10 63.3 °F 58.7 °F 29.88 in Calm     85% 0.00 in 0 W/m2
19:16 63.1 °F 58.8 °F 29.88 in Calm     86% 0.00 in 0 W/m2
19:22 62.8 °F 58.5 °F 29.88 in Calm     86% 0.00 in 0 W/m2
19:28 62.7 °F 58.8 °F 29.88 in Calm     87% 0.00 in 0 W/m2
19:40 62.3 °F 58.4 °F 29.88 in Calm     87% 0.00 in 0 W/m2
19:46 62.0 °F 58.1 °F 29.88 in Calm     87% 0.00 in 0 W/m2
19:52 61.8 °F 58.2 °F 29.88 in Calm     88% 0.00 in 0 W/m2
19:58 61.6 °F 58.0 °F 29.88 in Calm     88% 0.00 in 0 W/m2
20:04 61.5 °F 57.9 °F 29.88 in Calm     88% 0.00 in 0 W/m2
20:10 61.3 °F 58.0 °F 29.88 in Calm     89% 0.00 in 0 W/m2
20:16 61.1 °F 57.8 °F 29.88 in Calm     89% 0.00 in 0 W/m2
20:22 61.0 °F 57.7 °F 29.89 in Calm     89% 0.00 in 0 W/m2
20:28 60.8 °F 57.5 °F 29.89 in Calm     89% 0.00 in 0 W/m2
20:34 60.7 °F 57.4 °F 29.89 in Calm     89% 0.00 in 0 W/m2
20:40 60.6 °F 57.3 °F 29.89 in Calm     89% 0.00 in 0 W/m2
20:46 60.6 °F 57.7 °F 29.89 in Calm     90% 0.00 in 0 W/m2
20:52 60.4 °F 57.5 °F 29.89 in Calm     90% 0.00 in 0 W/m2
20:58 60.1 °F 57.2 °F 29.90 in Calm     90% 0.00 in 0 W/m2
21:04 60.0 °F 57.1 °F 29.90 in Calm     90% 0.00 in 0 W/m2
21:10 60.0 °F 57.1 °F 29.90 in Calm     90% 0.00 in 0 W/m2
21:16 60.0 °F 57.4 °F 29.90 in Calm     91% 0.00 in 0 W/m2
21:22 60.1 °F 57.5 °F 29.90 in Calm     91% 0.00 in 0 W/m2
21:28 60.1 °F 57.5 °F 29.90 in Calm     91% 0.00 in 0 W/m2
21:34 60.1 °F 57.5 °F 29.90 in Calm     91% 0.00 in 0 W/m2
21:40 60.0 °F 57.4 °F 29.90 in Calm     91% 0.00 in 0 W/m2
21:46 60.0 °F 57.7 °F 29.90 in Calm     92% 0.00 in 0 W/m2
21:52 59.9 °F 57.6 °F 29.91 in Calm     92% 0.00 in 0 W/m2
21:58 59.8 °F 57.5 °F 29.91 in Calm     92% 0.00 in 0 W/m2
22:04 59.6 °F 57.3 °F 29.91 in Calm     92% 0.00 in 0 W/m2
22:10 59.5 °F 57.2 °F 29.91 in Calm     92% 0.00 in 0 W/m2
22:16 59.5 °F 57.2 °F 29.91 in Calm     92% 0.00 in 0 W/m2
22:22 59.6 °F 57.3 °F 29.91 in Calm     92% 0.00 in 0 W/m2
22:28 59.6 °F 57.3 °F 29.91 in Calm     92% 0.00 in 0 W/m2
22:34 59.6 °F 57.3 °F 29.91 in Calm     92% 0.00 in 0 W/m2
22:40 59.5 °F 57.2 °F 29.91 in Calm     92% 0.00 in 0 W/m2
22:46 59.6 °F 57.3 °F 29.91 in Calm     92% 0.00 in 0 W/m2
22:52 59.5 °F 57.2 °F 29.91 in Calm     92% 0.00 in 0 W/m2
22:58 59.5 °F 57.2 °F 29.91 in Calm     92% 0.00 in 0 W/m2
23:04 59.4 °F 57.4 °F 29.91 in Calm     93% 0.00 in 0 W/m2
23:10 59.2 °F 56.9 °F 29.91 in Calm     92% 0.00 in 0 W/m2
23:18 59.1 °F 56.8 °F 29.91 in Calm     92% 0.00 in 0 W/m2
23:24 59.1 °F 56.8 °F 29.91 in Calm     92% 0.00 in 0 W/m2
23:26 59.1 °F 56.8 °F 29.91 in Calm     92% 0.00 in 0 W/m2
23:32 59.1 °F 57.1 °F 29.91 in Calm     93% 0.00 in 0 W/m2
23:38 59.2 °F 57.2 °F 29.91 in Calm     93% 0.00 in 0 W/m2
23:44 59.2 °F 57.2 °F 29.91 in Calm     93% 0.00 in 0 W/m2
23:50 59.4 °F 57.4 °F 29.91 in Calm     93% 0.00 in 0 W/m2
23:54 59.5 °F 57.5 °F 29.91 in Calm     93% 0.00 in 0 W/m2
Country Meadow, Clay, NY, USA
Compliments of Weather Underground - 2 mb